User: anonymous   Login
Location: Unspecified
(0.0000°N, 0.0000°E)
Time: 22:29:51
(UTC+00:00)
Language:

PRISM - Orbit

View from above orbital plane
View from above orbital plane
View from above satellite
View from above satellite

Ground track
Ground track

The orbit data is extracted from the following two-line orbital elements,

1 33493U 09002B   18343.70531430 +.00000878 +00000-0 +82805-4 0  9995
2 33493 098.1205 252.4286 0016236 094.9346 265.3735 14.96433660536592
Epoch (UTC): 09 December 2018 16:55:39
Eccentricity: 0.0016236
inclination: 98.1205°
perigee height: 566 km
apogee height: 589 km
right ascension of ascending node: 252.4286°
argument of perigee: 94.9346°
revolutions per day: 14.96433660
mean anomaly at epoch: 265.3735°
orbit number at epoch: 53659

The dashed part of the orbit path shows where the satellite is in the earth's shadow,  

DLR